This demonstration page uses our WeatherBlox Daily Observations layout. Learn more.

Left ArrowRight Arrow

38.20091, -84.87328

Hourly Observations for January 1, 2015

Temp ( °F °C ) Dew Point ( °F °C ) Humidity (%) Winds ( mph kmh ) Pressure ( in mb ) Visibility ( mi km ) Precip ( " mm )
12:53 am 00:53 Clear 18 -7.8 7 -13.9 62 62 SW 6 9 30.38 1029 10 16 0.00 0.00
1:53 am 01:53 Clear 19 -7.2 7 -13.9 59 59 SW 8 13 30.37 1028 10 16 0.00 0.00
2:53 am 02:53 Clear 19 -7.2 8 -13.3 62 62 SW 7 11 30.36 1028 10 16 0.00 0.00
3:53 am 03:53 Clear 18 -7.8 7 -13.9 62 62 SSW 3 6 30.33 1027 10 16 0.00 0.00
4:53 am 04:53 Clear 19 -7.2 8 -13.3 62 62 SW 7 11 30.32 1027 10 16 0.00 0.00
5:53 am 05:53 Clear 21 -6.1 9 -12.8 59 59 SSW 8 13 30.32 1027 10 16 0.00 0.00
6:53 am 06:53 Mostly Clear 20 -6.7 10 -12.2 65 65 SSW 7 11 30.32 1027 10 16 0.00 0.00
7:53 am 07:53 Cloudy 22 -5.6 11 -11.7 63 63 SW 8 13 30.31 1026 10 16 0.00 0.00
8:53 am 08:53 Mostly Sunny 23 -5 12 -11.1 63 63 SSW 9 15 30.30 1026 10 16 0.00 0.00
9:53 am 09:53 Cloudy 26 -3.3 12 -11.1 55 55 SW 12 19 30.32 1027 10 16 0.00 0.00
10:53 am 10:53 Cloudy 29 -1.7 12 -11.1 49 49 SW 10 17 30.32 1027 10 16 0.00 0.00
11:53 am 11:53 Sunny 33 0.6 9 -12.8 36 36 SW 16 26 30.25 1025 10 16 0.00 0.00
12:53 pm 12:53 Sunny 35 1.7 12 -11.1 38 38 SW 16 26 30.22 1024 10 16 0.00 0.00
1:53 pm 13:53 Sunny 38 3.3 16 -8.9 41 41 WSW 14 22 30.19 1022 10 16 0.00 0.00
2:53 pm 14:53 Sunny 38 3.3 18 -7.8 44 44 SW 16 26 30.18 1022 10 16 0.00 0.00
3:53 pm 15:53 Sunny 38 3.3 19 -7.2 46 46 WSW 10 17 30.19 1022 10 16 0.00 0.00
4:53 pm 16:53 Sunny 38 3.3 20 -6.7 48 48 SW 15 24 30.19 1023 10 16 0.00 0.00
5:53 pm 17:53 Clear 35 1.7 21 -6.1 57 57 SW 9 15 30.22 1023 10 16 0.00 0.00
6:53 pm 18:53 Clear 35 1.7 21 -6.1 57 57 SW 12 19 30.22 1024 10 16 0.00 0.00
7:53 pm 19:53 Clear 35 1.7 21 -6.1 57 57 SW 12 19 30.23 1024 10 16 0.00 0.00
8:53 pm 20:53 Clear 34 1.1 22 -5.6 61 61 SW 9 15 30.24 1024 10 16 0.00 0.00
9:53 pm 21:53 Clear 33 0.6 22 -5.6 64 64 SW 10 17 30.26 1025 10 16 0.00 0.00
10:53 pm 22:53 Cloudy 34 1.1 22 -5.6 61 61 SW 8 13 30.26 1025 10 16 0.00 0.00
11:53 pm 23:53 Cloudy 35 1.7 22 -5.6 59 59 SSW 10 17 30.26 1025 10 16 0.00 0.00

Powered by AerisWeather